Regional Weather Roundup
Issued by NWS Upton, NY

Current Version | Previous Version | Text Only | Print | Product List | Glossary On
Versions: 1 2 3 4 5 6 7 8 9 10 11 12 13 14 15 16 17 18 19 20 21 22 23 24 25 26 27 28 29 30 31 32 33 34 35 36 37 38 39 40 41 42 43 44 45 46 47 48 49 50
000
ASUS41 KOKX 012307
RWROKX

REGIONAL WEATHER ROUNDUP
NATIONAL WEATHER SERVICE NEW YORK NY
700 PM EDT WED APR 01 2015

NOTE: "FAIR" INDICATES FEW OR NO CLOUDS BELOW 12,000 FEET WITH NO
SIGNIFICANT WEATHER AND/OR OBSTRUCTIONS TO VISIBILITY.

NYZ071-072-176-178-NJZ106-104-020000-
NEW YORK CITY METRO AREA


CITY           SKY/WX    TMP DP  RH WIND       PRES   REMARKS
CENTRAL PARK   CLEAR     50  15  24 VRB6G17   30.15R
LAGUARDIA APRT CLEAR     49  19  30 NW16      30.13R
KENNEDY INTL   CLEAR     51  13  21 NW18G28   30.13R
NEWARK/LIBERTY CLEAR     50  16  25 NW15      30.13R
BRNX BOT. GARD   N/A    N/A N/A N/A NW7       30.15R
TETERBORO      CLEAR     49  17  28 NW13      30.12R
$$

NYZ177-179-078>081-020000-
LONG ISLAND NEW YORK

CITY           SKY/WX    TMP DP  RH WIND       PRES   REMARKS
FARMINGDALE    CLEAR     50  12  21 NW10      30.12R
ISLIP          CLEAR     48  15  26 NW8       30.09R
SHIRLEY        CLEAR     48  19  31 W6        30.11R
WESTHAMPTON    CLEAR     47  16  29 W6        30.12R
MONTAUK POINT    N/A     44  23  43 W5        30.11R
$$

NYZ052-065-067-020000-
HUDSON VALLEY

CITY           SKY/WX    TMP DP  RH WIND       PRES   REMARKS
WHITE PLAINS   CLEAR     47  12  24 NW13      30.10R
NEWBURGH       CLEAR     46  14  27 W16G23    30.12R
MONTGOMERY     CLEAR     46   9  22 W9        30.12R
POUGHKEEPSIE   CLEAR     48   4  16 NW10      30.11R
ALBANY         PTCLDY    40   6  24 W16       30.14R WCI  31
$$

NJZ001-105-106-008-010-013-015-019>022-104-020000-
NEW JERSEY

CITY           SKY/WX    TMP DP  RH WIND       PRES   REMARKS
NEWARK/LIBERTY CLEAR     50  16  25 NW15      30.13R
TETERBORO      CLEAR     49  17  28 NW13      30.12R
CALDWELL       CLEAR     49  16  26 NW12      30.14R
MORRISTOWN     CLEAR     48  16  27 N15       30.14R
SOMERVILLE     CLEAR     51  18  27 NW8       30.13R
SUSSEX         CLEAR     46  15  28 NW5       30.15R
ANDOVER          N/A     45  14  28 N7        30.14R
TRENTON        CLEAR     50  23  34 NW8       30.15R
MILLVILLE      CLEAR     53  20  27 NW12      30.15R
ATLANTIC CITY  CLEAR     52  22  30 NW12      30.14R
WRIGHTSTOWN    CLEAR     50  24  36 NW12      30.12R
TOMS RIVER     CLEAR     52  21  30 NW8       30.15R
BELMAR         CLEAR     50  19  29 NW12      30.14R
$$

PAZ047>061-062-071-020000-
EASTERN PENNSYLVANIA

CITY           SKY/WX    TMP DP  RH WIND       PRES   REMARKS
PHILADELPHIA   CLEAR     55  16  21 NW12      30.16R
ALLENTOWN      CLEAR     48  25  40 NW10      30.15R
SCRANTON       CLEAR     47  21  35 VRB6      30.13R
$$

CTZ002-004>006-009-010-012-RIZ004-006-007-MAZ004-011-015-020000-
SOUTHERN NEW ENGLAND
 IN CT

CITY           SKY/WX    TMP DP  RH WIND       PRES   REMARKS
BRADLEY INTL   CLEAR     45   5  19 NW12      30.10R
HARTFORD       CLEAR     46   2  16 NW10      30.11R
DANBURY        CLEAR     47   4  17 NW8       30.11R
WTRBRY/OXFORD  CLEAR     45   9  23 N14       30.10R
BRIDGEPORT     CLEAR     51   5  15 NW6       30.09R
MERIDEN        CLEAR     47   4  17 NW13G22   30.10R
NEW HAVEN      CLEAR     48  12  23 NW6       30.09R
CHESTER        FAIR      46   3  17 NW12      30.09R
GROTON         CLEAR     46   5  18 NW8       30.09R
WILLIMANTIC    CLEAR     45   5  19 NW7       30.09R

 IN RI

CITY           SKY/WX    TMP DP  RH WIND       PRES   REMARKS
PROVIDENCE     PTCLDY    45   5  19 W14G21    30.09R
BLOCK ISLAND   CLEAR     43  21  42 W6        30.09R
WESTERLY       CLEAR     46   5  18 NW6       30.10R

 IN MA

CITY           SKY/WX    TMP DP  RH WIND       PRES   REMARKS
BOSTON         PTCLDY    44   5  20 NW17G23   30.08R
WORCESTER      CLEAR     39   1  20 NW8       30.06R WCI  33
WESTFIELD      CLEAR     44   5  20 W10       30.10R
PROVINCETOWN   CLEAR     37  18  44 CALM      30.08R
NANTUCKET      PTCLDY    35  18  49 S9        30.09R WCI  28
$$

ANZ330-335-338-340-345-350-353-355-020000-
COASTAL MARINE OBSERVATIONS


STATION/POSITION TIME  SKY/WX   TEMP    WIND        PRES    VSBY  WAVE
                                AIR SEA DIR/SP/G                  HT/PER
                 (UTC)          (F)     (DEG/KT/KT) (MB)    (MI)  (FT/S)
NY HARB ENTRANCE 2250            44 40  270/  8/ 10 1020.0          1/ 8
4S FIRE IS       2203               38                N/A           2/ 8
20S FIRE ISLAND  NOT AVBL
23SW MTP         2250                                 N/A           2/ 8
HUDSON CANYON    NOT AVBL
EXECUTION ROCKS  NOT AVBL
WESTERN LI SOUND NOT AVBL
CENTRAL LI SOUND NOT AVBL
EASTERN LI SOUND NOT AVBL
ROBBINS REEF     2200            50     320/ 14/ 17 1018.3
$$


>>>>>>>>>>>>>>>>>>>>>>>>>>>> KEY <<<<<<<<<<<<<<<<<<<<<<<<<<<
>                                                          <
>     SKY/WX - SKY CONDITION/PRESENT WEATHER               <
>     TMP    - TEMPERATURE IN FAHRENHEIT                   <
>     DP     - DEWPOINT IN FAHRENHEIT                      <
>     RH     - RELATIVE HUMIDITY IN PERCENT                <
>     WIND   - DIRECTION AND SPEED IN MPH                  <
>     PRES   - MEAN SEA LEVEL PRESSURE IN INCHES OF HG     <
>     WCI    - WIND CHILL INDEX                            <
>     VSB    - VISIBILITY IN MILES                         <
>     HX     - HEAT INDEX                                  <
>     TC     - TEMPERATURE IN CELSIUS                      <
>     VRB    - VARIABLE WIND DIRECTION                     <
>                                                          <
>>>>>>>>>>>>>>>>>>>>>>>>>>>> KEY <<<<<<<<<<<<<<<<<<<<<<<<<<<




USA.gov is the U.S. government's official web portal to all federal, state and local government web resources and services.